SL-16 DEB, 24866

Orbit data source: Space-Track

SL-16 DEB, 24866 is space debris in LEO originally from a launch on Wed, 04 Sep 1996 UTC launched from the Tyuratam Missile And Space Complex (TTMTR). Debris objects in space refer to the collection of defunct objects orbiting the Earth. Examples of debris include non-operational satellites, rocket bodies, and fragments generated from explosions, collisions, or faulty payload assembly.

Loading next visibility...
Identifier
24866, 1996-051H
Orbit
LEO
Last TLE update
12 hours ago
Origin
Manufacturer
Unknown
Mission
Spacecraft
Bus & Motor
Unknown
Mass
Unknown
Launch date (UTC)
1996-09-04 (29 years ago)
Launch vehicle
Unknown
Launch site
Tyuratam Missile And Space Complex (TTMTR)
Object type
Payload
Rocket body
Debris
Shape & HBR
Unknown
Radar Cross Section
Small (<0.1 m²)

Expand to show TLE details & history

TLE from 12 hours ago
0 SL-16 DEB
1 24866U 96051H   25129.35628715 -.00000131  00000-0 -46485-4 0  9991
2 24866  71.1218 105.9065 0061634 176.7895 183.3635 14.10816986475578
Epoch: 2025-05-09T08:33Z
Definitive object data (Epoch: 2025-05-09T08:33:03.209Z)
Latitude
-0.00002°
Longitude
110.22952°
Altitude
903.502 km
Speed
7.378 km/s
True Right ascension
07h 03m 37s
True Declination
0° 00' 00"
Sunlit
Object was in daylight at TLE epoch
Visualization TLE readout
Latitude
47.15968°
Longitude
130.69979°
Altitude
888.954 km
Speed
7.399 km/s
Apparent Right ascension
12h 37m 06s
Apparent Declination
15° 41' 24"
Sunlit
Object is in daylight
Visualization observer readout
Local Sidereal Time
04:53:25
Azimuth
61.126° ENE
Elevation
-8.585°
Doppler factor
1
Orbital elements
Apogee altitude
899.072 km
Perigee altitude
809.917 km
Semi-major axis
7,232.631 km
Eccentricity
0.0061634
Inclination
71.1218°
RAAN
105.9065°
Arg. of periapsis
176.7895°
True anomaly
183.32238°
Mean anomaly
183.3635°
Eccentric anomaly
183.34291°
Mean motion
3.52857 °/min
BSTAR
-0.000046485
Orbital period
102.02 mins
Loading maneuver chart data...
Loading SW <> Apogee altitude chart data...
Loading historical data...
Loading historical data...
Loading historical data...
Loading historical data...
Loading historical data...
Loading historical data...
Loading historical data...

SL-16 DEB Visibility forecast

Observer location: undefined°, undefined°

Span
Click to sort rows by Start time (UTC) header in descending order
Start Az.
Max El. time (UTC)
Max El. Az.
Max El.
End time (UTC)
End Az.
5 mins2025-05-09 22:18:14.508Z124.798° SE2025-05-09 22:20:14.508Z103.516° ESE14.495°2025-05-09 22:23:14.508Z70.452° E
9 mins2025-05-10 00:00:14.508Z211.096° SW2025-05-10 00:04:14.508Z278.327° WNW43.788°2025-05-10 00:09:14.508Z18.108° NNE
8 mins2025-05-10 08:57:14.508Z357.676° N2025-05-10 09:00:14.508Z48.031° ENE35.53°2025-05-10 09:05:14.508Z132.779° SE
6 mins2025-05-10 10:42:14.508Z292.673° NW2025-05-10 10:44:14.508Z265.203° W20.649°2025-05-10 10:48:14.508Z213.601° SW
|